Regional Weather Roundup
Issued by NWS

Home | Current Version | Previous Version | Graphics & Text | Print | Product List | Glossary On
Versions: 1 2 3 4 5 6 7 8 9 10 11 12 13 14 15 16 17 18 19 20 21 22 23 24 25 26 27 28 29 30 31 32 33 34 35 36 37 38 39 40 41 42 43 44 45 46 47
000
ASUS43 KDMX 011607
RWRIA

WEATHER ROUNDUP FOR IOWA
NATIONAL WEATHER SERVICE DES MOINES IA
1100 AM CDT WED OCT 01 2014

NOTE: "FAIR" INDICATES FEW OR NO CLOUDS BELOW 12,000 FEET WITH NO
SIGNIFICANT WEATHER AND/OR OBSTRUCTIONS TO VISIBILITY.

* - THESE STATIONS ARE NOT NWS STATIONS...THUS NOT UNDER NWS
QUALITY CONTROL.  THEY ALSO DO NOT REPORT WEATHER SUCH
AS PRECIPITATION OR FOG.

IAZ001>003-012>014-020>022-031>034-043>046-011700-
   NORTHWEST IOWA

CITY           SKY/WX    TMP DP  RH WIND       PRES   REMARKS
CARROLL *      CLOUDY    68  64  88 S9        29.76F
CHEROKEE *     CLOUDY    61  61 100 CALM      29.76F FOG
DENISON *        N/A     66  63  88 W6        29.75F
LE MARS *      MOSUNNY   68  61  77 SE8       29.74F
ORANGE CITY *  MOSUNNY   66  57  72 SE5       29.75F
SHELDON *      CLOUDY    63  61  94 SE6       29.75S
SIOUX CITY     MOSUNNY   68  61  78 SE10      29.73F
SPENCER        CLOUDY    58  56  93 NE7       29.78F FOG
STORM LAKE *   CLOUDY    63  61  94 W9        29.78R
$$

IAZ055>058-069>071-079>083-090>094-011700-
   SOUTHWEST IOWA

CITY           SKY/WX    TMP DP  RH WIND       PRES   REMARKS
ATLANTIC *     CLOUDY    66  64  94 S7        29.76S
AUDUBON *      MOSUNNY   64  59  82 S6        29.78S
CLARINDA *     CLOUDY    68  64  88 S12       29.77F
COUNCIL BLFS * MOSUNNY   66  66 100 SE8       29.75S
CRESTON *      PTSUNNY   66  63  88 S15G21    29.78S
HARLAN  *      CLOUDY    66  64  94 S8        29.79F
LAMONI         CLOUDY    63  61  93 SE10      29.80S
RED OAK *      CLOUDY    66  64  94 S7        29.76S
SHENANDOAH *   CLOUDY    68  66  94 S10G16    29.76S
$$

IAZ047>049-059>061-072>074-084-011700-
   CENTRAL IOWA

CITY           SKY/WX    TMP DP  RH WIND       PRES   REMARKS
AMES           CLOUDY    58  58 100 SE6       29.79F FOG
ANKENY *       CLOUDY    61  61 100 S7        29.79F
CHARITON *     CLOUDY    64  63  94 S10G21    29.80S
DES MOINES     CLOUDY    65  61  87 S8        29.79F FOG
GRINNELL*      CLOUDY    57  55  94 SE10      29.82F
KNOXVILLE *    MOSUNNY   63  59  88 SE9G15    29.78F
MARSHALLTOWN   CLOUDY    58  56  93 S8        29.81S
PELLA *        CLOUDY    61  61 100 S9        29.81F FOG
PERRY *        CLOUDY    63  63 100 SE8       29.77S FOG
$$

IAZ004>006-015-016-023>025-035-036-011700-
   NORTH CENTRAL IOWA

CITY           SKY/WX    TMP DP  RH WIND       PRES   REMARKS
ALGONA *       CLOUDY    57  55  94 S13G18    29.78F FOG
CLARION *      CLOUDY    55  55 100 SE7       29.80F
ESTHERVILLE    LGT RAIN  54  54 100 SE3       29.79S VSB 1
FORT DODGE *   CLOUDY    59  57  94 S6        29.79F
MASON CITY     CLOUDY    53  52  96 SE14      29.82F FOG
FOREST CITY *  CLOUDY    54  54 100 SE10      29.81S FOG
IOWA FALLS *   CLOUDY    55  54  94 SE7       29.82R FOG
$$

IAZ007>011-017>019-026>030-037>042-050>054-066-011700-
   NORTHEAST IOWA

CITY           SKY/WX    TMP DP  RH WIND       PRES   REMARKS
CEDAR RAPIDS   LGT RAIN  55  54  94 SE9       29.85S
CHARLES CITY * CLOUDY    54  52  94 SE10      29.84F
CLINTON *      PTSUNNY   61  52  72 SE13      29.95F
DECORAH *      CLOUDY    54  50  87 SE12      29.84F
MONTICELLO *   MOSUNNY   59  50  72 SE15G22   29.85F
OELWEIN *      SUNNY     55  50  82 SE17      29.84R
WATERLOO       CLOUDY    55  51  86 SE12      29.82S
$$

IAZ064-065-067-068-078-011700-
   EAST CENTRAL IOWA

CITY           SKY/WX    TMP DP  RH WIND       PRES   REMARKS
IOWA CITY      LGT RAIN  57  53  86 SE14      29.86F
MT. PLEASANT * LGT RAIN  59  54  82 SE6       29.91F
MUSCATINE *    PTSUNNY   63  52  67 S9        29.91F
$$

IAZ062-063-075>077-085>089-095>099-011700-
   SOUTHEAST IOWA

CITY           SKY/WX    TMP DP  RH WIND       PRES   REMARKS
BURLINGTON     CLOUDY    63  55  75 SW7       29.93R
FAIRFIELD *    LGT RAIN  57  55  94 SE17G26   29.82F
FORT MADISON * LGT RAIN  63  55  77 SW3       29.94R
KEOKUK *       LGT RAIN  59  55  88 CALM      29.93S
OSKALOOSA *    LGT RAIN  59  57  94 SE3       29.82F
CENTERVILLE *  LGT RAIN  61  61 100 SE7       29.83F
OTTUMWA        LGT RAIN  58  56  93 SE10      29.81F FOG
WASHINGTON *   CLOUDY    57  55  94 SE17G25   29.86F FOG
$$

ABBREVIATIONS USED IN REMARKS
   TC - TEMPERATURES IN CELSIUS
  WCI - WIND CHILL INDEX
   HX - HEAT INDEX
  VSB - VISIBILITY
$$




USA.gov is the U.S. government's official web portal to all federal, state and local government web resources and services.